Voltar ao catálogo

FENGYUN 1C DEB

AtivoSSO
NORAD 30021·DEBRIS·🇨🇳 China

Lançado May 10, 1999 de Taiyuan Satellite Launch Center

Loading…

Próximas Passagens (próximas 24 horas)

TLE

AtualizadoSource: Space-Track

Época: Sep 14, 2026, 22:41 UTC

1 30021U 99025MW  26257.94549183 -.00000166  00000-0 -74450-4 0  9995
2 30021  98.8564 247.6092 0071740 233.2655 155.7362 14.04984497  8112

Acompanhe FENGYUN 1C DEB em tempo real com AllMySat

Download on the App Store